SlavePonyGeneral's Pastes

Joined: 18th December 2020

Badges

Paste Title Paste Time Paste Views Paste Syntax
Paste Title Paste Time Paste Views Paste Syntax
Buying a (second) Bookhorse, by Lurkernon 1611270104 21st January 2021 11:01:44 PM 9952 GREEN
Fluttershy trap story for fake contest, by meunster 1611252947 21st January 2021 06:15:47 PM 9839 GREEN
A Rush for Freedom Part 2, by HubertDeLayle 1611092590 19th January 2021 09:43:10 PM 9563 GREEN
It's not so bad.txt, by Norlf 1610983309 18th January 2021 03:21:49 PM 9820 GREEN
Doctor Red, by Norlf 1610983219 18th January 2021 03:20:19 PM 9517 GREEN
Black Mass, by Norlf 1610983040 18th January 2021 03:17:20 PM 88 GREEN
[Cancelled] Une de perdue dix de retrouvées.txt, by Norlf 1610982848 18th January 2021 03:14:08 PM 100 GREEN
Punishing my Pink Puffball, by PPPF 1610982101 18th January 2021 03:01:41 PM 98 GREEN
UNTITLED (Pinkie Pie), by Unknown 1610981878 18th January 2021 02:57:58 PM 94 GREEN
UNTITLED (Roseluck) by Unknown 1610981677 18th January 2021 02:54:37 PM 71 GREEN
UNTITLED (Rarity) by Unknown 1610981538 18th January 2021 02:52:18 PM 87 GREEN
UNTITLED (Rainbow Dash & Fluttershy) by Unknown 1610981415 18th January 2021 02:50:15 PM 81 GREEN
UNTITLED (Big McIntosh), by Unkown 1610470270 12th January 2021 04:51:10 PM 82 GREEN
Comfy Mare Slaves, by Unknown 1610470166 12th January 2021 04:49:26 PM 121 GREEN
UNTITLED (Lyra Heartstrings), by Unknown 1610470081 12th January 2021 04:48:01 PM 110 GREEN
UNTITLED (Twilight Sparkle), by Unknown 1610469978 12th January 2021 04:46:18 PM 109 GREEN
UNTITLED (Pinkie Pie), by Unknown 1610469655 12th January 2021 04:40:55 PM 85 GREEN
UNTITLED (Gilda), by Unknown 1610469564 12th January 2021 04:39:24 PM 92 GREEN
UNTITLED (Cloudchaser), by Unknown 1610469420 12th January 2021 04:37:00 PM 78 GREEN
In Soviet Equestria, Pony Snuggles You!, by Zebrafag 1610468780 12th January 2021 04:26:20 PM 122 GREEN
Liquid's Chronicled Delight, by Writeslut 1610468629 12th January 2021 04:23:49 PM 123 GREEN
For You, Friends, by Vadkram 1610468156 12th January 2021 04:15:56 PM 87 GREEN
Winter's Calling, by UnyxMaedi 1610467932 12th January 2021 04:12:12 PM 53 GREEN
Diamond in the Rough, by Two-Digit IQ 1610467793 12th January 2021 04:09:53 PM 73 TEXT
Amputee Pone, by Tuner9 1610404036 11th January 2021 10:27:16 PM 119 TEXT
Milkmare Applejack, by Tuner9 1610403872 11th January 2021 10:24:32 PM 153 GREEN
Cutie Mark Crusader Crminls, by Tuner9 1610403678 11th January 2021 10:21:18 PM 95 GREEN
Soarin' High, by Top Quark 1610403452 11th January 2021 10:17:32 PM 113 GREEN
Slave Starlight - Chapter 3, by TitanicTime2 1610403108 11th January 2021 10:11:48 PM 87 TEXT
Slave Starlight - Chapter 2, by TitanicTime2 1610403006 11th January 2021 10:10:06 PM 66 TEXT
Slave Starlight - Chapter 1, by TitanticTime2 1610402912 11th January 2021 10:08:32 PM 100 TEXT
Slave Starlight - Prologue, by TitanicTime2 1610402831 11th January 2021 10:07:11 PM 90 TEXT
For the love of Anon, by TitanicTime2 1610402546 11th January 2021 10:02:26 PM 121 GREEN
An Afternoon with Pinkie Pie, by Thatguywiththeface 1610141199 8th January 2021 09:26:39 PM 196 GREEN
UNTITLED (Pony OC) by TempTrip 1610141008 8th January 2021 09:23:28 PM 106 GREEN
UNTITLED (Soarin) by Trente-Neuf 1610140865 8th January 2021 09:21:05 PM 80 GREEN
UNTITLED (Fluttershy) by Trente-Neuf 1610140765 8th January 2021 09:19:25 PM 112 GREEN
Neodymium, by Square Root of 1521 1610140656 8th January 2021 09:17:36 PM 83 GREEN
/SPG/ Snippets, by Strumstar Hammer 1609954182 6th January 2021 05:29:42 PM 156 GREEN
A Mission of Pure Curiosity, by Strumstar Hammer 1609884390 5th January 2021 10:06:30 PM 124 GREEN
Moonshards, by Stripes 1609884261 5th January 2021 10:04:21 PM 120 GREEN
The tale of thief anon, by Stonewall Jackson 1609884185 5th January 2021 10:03:05 PM 72 GREEN
Essence, by Flamesteek 1609884092 5th January 2021 10:01:32 PM 96 GREEN
Good Girl (Coco Pommel) by Spookums 1609883932 5th January 2021 09:58:52 PM 263 GREEN
Shiny and Corona Part 2, by SomeWriteFag 1609883580 5th January 2021 09:53:00 PM 95 GREEN
Shiny and Corona Part 1, by SomeWriteFag 1609883558 5th January 2021 09:52:38 PM 97 GREEN
Runaway (Bon-Bon), by Snowbound 1609883306 5th January 2021 09:48:26 PM 104 GREEN
Skittles (Fan continuation of SkittlesAnon's story) by[...] 1609883229 5th January 2021 09:47:09 PM 90 GREEN
Skittles, by Skittlesanon 1609882880 5th January 2021 09:41:20 PM 124 GREEN
Going Shopping, by Shitcunt 1609787240 4th January 2021 07:07:20 PM 93 GREEN
Present for Dad, by Shitcunt 1609787125 4th January 2021 07:05:25 PM 79 GREEN
The Sun Will Rise Again Part 2, by Shitcunt 1609786914 4th January 2021 07:01:54 PM 147 GREEN
The Sun Will Rise Again, by Shitcunt 1609786833 4th January 2021 07:00:33 PM 179 GREEN
Suzie the Ponymon, by Klaifferon 1609786330 4th January 2021 06:52:10 PM 68 GREEN
A Rare Breed, by ShippingIsLoveLife 1609786086 4th January 2021 06:48:06 PM 109 GREEN
A Wrinkle In Grime, by Rus3Master 1609785789 4th January 2021 06:43:09 PM 85 GREEN
Blocky the Slavepone 7, by BlockyAnon 1609706776 3rd January 2021 08:46:16 PM 68 GREEN
Blocky the Slavepone 6, by BlockyAnon 1609706711 3rd January 2021 08:45:11 PM 56 GREEN
Blocky the Slavepone 5, by BlockyAnon 1609706606 3rd January 2021 08:43:26 PM 62 GREEN
Blocky the Slavepone 4, by BlockyAnon 1609706495 3rd January 2021 08:41:35 PM 56 GREEN
Blocky the Slavepone 3, by BlockyAnon 1609706435 3rd January 2021 08:40:35 PM 61 GREEN
Blocky the Slavepone 2, by BlockyAnon 1609706385 3rd January 2021 08:39:45 PM 57 GREEN
Blocky the Slavepone 1, by BlockyAnon 1609706267 3rd January 2021 08:37:47 PM 85 GREEN
Butter Cookies and Cream, by Rupture Through Space And Time 1609366457 30th December 2020 10:14:17 PM 98 GREEN
UNTITLED, by RPBN 1609365588 30th December 2020 09:59:48 PM 118 GREEN
Drunk Anon and Scared Pone, by ReebAnon 1609365316 30th December 2020 09:55:16 PM 104 GREEN
Black Mage Anon, by Reebanon 1609364967 30th December 2020 09:49:27 PM 123 GREEN
Tibetnon, by Rat 1609354035 30th December 2020 06:47:15 PM 80 GREEN
To Fly Away, by Rarifag21 1609353919 30th December 2020 06:45:19 PM 73 GREEN
Rarity's Last Chance Part 3, by RareSF 1609353168 30th December 2020 06:32:48 PM 102 GREEN
Rarity's Last Chance Part 2, by RareSF 1609353089 30th December 2020 06:31:29 PM 88 GREEN
Rarity's Last Chance Part 1, by RareSF 1609352920 30th December 2020 06:28:40 PM 124 GREEN
UNTITLED by Quest 1609352797 30th December 2020 06:26:37 PM 75 GREEN
Touch as Rock, by Ponke 1609268718 29th December 2020 07:05:18 PM 88 GREEN
Escape Into the Wild, by Ponke 1609268626 29th December 2020 07:03:46 PM 169 GREEN
Alone in the Woods, by Ponke 1609268299 29th December 2020 06:58:19 PM 172 GREEN
UNTITLED by PhysicsAnon[...] 1609268105 29th December 2020 06:55:05 PM 120 GREEN
Interstellar Celly Part 2, by PhysicalAnontism 1609267925 29th December 2020 06:52:05 PM 66 GREEN
Interstellar Celly Part 1, by PhysicalAnontism 1609267818 29th December 2020 06:50:18 PM 74 GREEN
All this fuckin' white, by Phase 2 1609267430 29th December 2020 06:43:50 PM 103 GREEN
To Free the Oppressed, by OperatorAnon 1609267150 29th December 2020 06:39:10 PM 106 GREEN
Maybe, by OG Mudpone 1609266982 29th December 2020 06:36:22 PM 71 GREEN
Like a Broken Vase, by NoSpoon 1609261308 29th December 2020 05:01:48 PM 89 GREEN
Letting Go, by NoSpoon 1609261151 29th December 2020 04:59:11 PM 72 GREEN
Untitled Sunburst & Twilight Velvet 1609260790 29th December 2020 04:53:10 PM 64 GREEN
Untitled Windy Whistles story, by Unknown 1609170827 28th December 2020 03:53:47 PM 77 GREEN
Anon Sparkle, by NewFagAlphaCentauri 1608761057 23rd December 2020 10:04:17 PM 138 GREEN
Project Redux, by Neutral 1608760695 23rd December 2020 09:58:15 PM 64 GREEN
Time to Fly, by Neutral 1608760586 23rd December 2020 09:56:26 PM 94 TEXT
A Pony Unwanted, by Nephanee 1608760467 23rd December 2020 09:54:27 PM 97 GREEN
Life of Honey 1608760382 23rd December 2020 09:53:02 PM 69 GREEN
Rose-Colored Glasses, by Neph 1608760264 23rd December 2020 09:51:04 PM 89 GREEN
California Express by Mossbergison 1608759033 23rd December 2020 09:30:33 PM 91 GREEN
A Helping Hand, by MnM 1608758911 23rd December 2020 09:28:31 PM 77 GREEN
Side Story 1 - Misty Slate, by Mirta 1608758830 23rd December 2020 09:27:10 PM 62 GREEN
Teaching Happiness, by Mirta 1608675275 22nd December 2020 10:14:35 PM 68 GREEN
Restoration of Equestria, by Mirta 1608675168 22nd December 2020 10:12:48 PM 93 GREEN
Alone in the Dark, by Mirta 1608675052 22nd December 2020 10:10:52 PM 118 GREEN
Blessing in Disguise, by Miffed 1608674801 22nd December 2020 10:06:41 PM 83 GREEN
Redemption of a Filly, by Mercury 1608674367 22nd December 2020 09:59:27 PM 91 GREEN
Sadistic Romance by Mercury 1608674243 22nd December 2020 09:57:23 PM 66 GREEN
Because I Choose To, Part 2 by Mercury 1608674122 22nd December 2020 09:55:22 PM 68 GREEN
Because I Choose To, Part 1 by Mercury 1608674037 22nd December 2020 09:53:57 PM 157 GREEN
In A Gilded Cage by Mediocrewritefag 1608673940 22nd December 2020 09:52:20 PM 79 GREEN
Cadance: Specimen A-3 by Littlewitch 1608578559 21st December 2020 07:22:39 PM 115 GREEN
Shining and Femanon by Littlewitch 1608578492 21st December 2020 07:21:32 PM 198 GREEN
A New Landscape by Landscape 1608578401 21st December 2020 07:20:01 PM 82 GREEN
Recovery by Klaifferon 1608578220 21st December 2020 07:17:00 PM 119 GREEN
BlindAnon's Seeing-Eye Fluttershy by JohnColt 1608578034 21st December 2020 07:13:54 PM 151 GREEN
Broken Princess by Jingles 1608577955 21st December 2020 07:12:35 PM 162 GREEN
Jack by Jack of Apples 1608577608 21st December 2020 07:06:48 PM 96 GREEN
Celestia's Maiden Voyage by IHLAOY 1608577522 21st December 2020 07:05:22 PM 126 GREEN
Regards, Anon - Alternate Ending by unknown 1608577458 21st December 2020 07:04:18 PM 113 GREEN
Regards, Anon by IHLAOY 1608577368 21st December 2020 07:02:48 PM 182 GREEN
A Noon Among the Stars by HunterAnon 1608577294 21st December 2020 07:01:34 PM 83 GREEN
Magic and Panzers by HunterAnon 1608577235 21st December 2020 07:00:35 PM 55 GREEN
Octavia in Occupied France by HunterAnon 1608577170 21st December 2020 06:59:30 PM 56 GREEN
Selene The Huntress by HunterAnon 1608577106 21st December 2020 06:58:26 PM 45 GREEN
A Rush for Freedom Summary, by HubertDeLayle 1608576991 21st December 2020 06:56:31 PM 59 TEXT
A Rush for Freedom Part 1 by HubertDeLayle 1608576938 21st December 2020 06:55:38 PM 98 GREEN
Stuck with Starlight by HeliAnon 1608505785 20th December 2020 11:09:45 PM 101 GREEN
Helping Her Bad End by HeliAnon 1608505730 20th December 2020 11:08:50 PM 74 GREEN
Helping Her Part 3 by HeliAnon 1608505679 20th December 2020 11:07:59 PM 67 GREEN
Helping Her Christmas Special by HeliAnon 1608505619 20th December 2020 11:06:59 PM 63 GREEN
Helping Her Part 2 by HeliAnon 1608505577 20th December 2020 11:06:17 PM 79 GREEN
Helping Her Part 1 by HeliAnon 1608505511 20th December 2020 11:05:11 PM 98 GREEN
Work Hard, Play hard, Die Hard by Handsome Jew 1608505428 20th December 2020 11:03:48 PM 77 GREEN
The Meal by Handsome jew 1608505355 20th December 2020 11:02:35 PM 69 GREEN
Famous in Infamous Lands by Handsome Jew 1608505106 20th December 2020 10:58:26 PM 65 GREEN
Gold, Cold, and Muffins by Handsome Jew 1608505049 20th December 2020 10:57:29 PM 83 GREEN
A Glimmer of Hope by Handsome Jew 1608514163 21st December 2020 01:29:23 AM 96 TEXT
Chain Grime by Gizmo 1608492692 20th December 2020 07:31:32 PM 47 GREEN
Kick Pacer by Gizmo 1608492590 20th December 2020 07:29:50 PM 51 GREEN
Steel Steed by Gizmo 1608492535 20th December 2020 07:28:55 PM 66 GREEN
Lyra Temple Run by Gizmo 1608492473 20th December 2020 07:27:53 PM 55 GREEN
My own Pinkie Pie! 1608492375 20th December 2020 07:26:15 PM 104 GREEN
Trash Panda by Fonypan 1608492319 20th December 2020 07:25:19 PM 57 GREEN
Spoons by Fonypan 1608492257 20th December 2020 07:24:17 PM 69 GREEN
Storm Ponies by Flyest 1608492186 20th December 2020 07:23:06 PM 71 GREEN
Changeling Lifestyle: The End by Fireking 1608492115 20th December 2020 07:21:55 PM 66 TEXT
Changeling Lifestyle Part 2, by Fireking 1608492038 20th December 2020 07:20:38 PM 81 GREEN
Changeling Lifestyle Part 1, by Fireking 1608491918 20th December 2020 07:18:38 PM 163 GREEN
Helping Hands, Helping Hooves by Dyslexia 1608484336 20th December 2020 05:12:16 PM 69 GREEN
Codename: OPFAG by Codename: OPFAG 1608484234 20th December 2020 05:10:34 PM 81 GREEN
Will of Steel by Clarissa 1608346842 19th December 2020 03:00:42 AM 91 GREEN
Hunter Anon (combined) by CaptainAnonymous 1608346762 19th December 2020 02:59:22 AM 90 GREEN
Hunter Anon Chapter 4 by CaptainAnonymous 1608346656 19th December 2020 02:57:36 AM 59 GREEN
Hunter Anon Chapter 3 by CaptainAnonymous 1608346580 19th December 2020 02:56:20 AM 171 GREEN
Hunter Anon Chapter 2 by CaptainAnonymous 1608346497 19th December 2020 02:54:57 AM 68 GREEN
Hunter Anon Chapter 1 by CaptainAnonymous 1608346417 19th December 2020 02:53:37 AM 76 GREEN
Hunter Anon Chapter 1 by CaptainAnonymous 1608346417 19th December 2020 02:53:37 AM 71 GREEN
Unable to locate list: 1608346275 19th December 2020 02:51:15 AM 91 TEXT
Coming Out of Your Cocoon by BugFag 1608346147 19th December 2020 02:49:07 AM 119 GREEN
War and Slavery by Britanon 1608346072 19th December 2020 02:47:52 AM 96 GREEN
White Knight Squad by Bluebirdd065 1608345063 19th December 2020 02:31:03 AM 75 GREEN
Uma Musume Pretty Servant by Badpacing 1608345009 19th December 2020 02:30:09 AM 73 GREEN
Motherly Flare by BadPacing 1608344953 19th December 2020 02:29:13 AM 72 GREEN
Rumble Underfoot by Badpacing 1608337217 19th December 2020 12:20:17 AM 62 GREEN
Motherly Instinct by Badpacing 1608337114 19th December 2020 12:18:34 AM 95 GREEN
Under the Burning Sun by Badpacing 1608337067 19th December 2020 12:17:47 AM 56 GREEN
We'll Learn Together by Badpacing 1608336390 19th December 2020 12:06:30 AM 64 GREEN
A Change of Key by Badpacing 1608336336 19th December 2020 12:05:36 AM 74 GREEN
A Matter of Honor by Badpacing 1608336281 19th December 2020 12:04:41 AM 80 GREEN
Ponies Are Supposed To Be Small by Badpacing 1608336203 19th December 2020 12:03:23 AM 76 GREEN
The Invasion of Florence by Badpacing 1608336149 19th December 2020 12:02:29 AM 56 GREEN
Pleasant Farm by Badpacing 1608336099 19th December 2020 12:01:39 AM 63 GREEN
Diary by Anon_01 1608335863 18th December 2020 11:57:43 PM 75 GREEN
Broken/stuck by Anon_01 1608335812 18th December 2020 11:56:52 PM 102 GREEN
Slave Pony: Twilight Sparkle by AnalplugAnon 1608335636 18th December 2020 11:53:56 PM 90 GREEN
The Village Bicycle 2: One Bad Apple by Aganon 1608335525 18th December 2020 11:52:05 PM 56 GREEN
The Village Bicycle by Aganon (Prose version) 1608335434 18th December 2020 11:50:34 PM 59 TEXT
The Village Bicycle by Aganon 1608335375 18th December 2020 11:49:35 PM 92 GREEN
Friendly Camping Trip by RM-Writing 1608325655 18th December 2020 09:07:35 PM 67 GREEN
Geologic Assistant, by RM-Writing 1608324318 18th December 2020 08:45:18 PM 198 GREEN
Thread Template 1608321899 18th December 2020 08:04:59 PM 62 TEXT
/SPG/ thread archive 1608321855 18th December 2020 08:04:15 PM 280 PASTEDOWN
All Stories [199] 1608315359 18th December 2020 06:15:59 PM 1496 PASTEDOWN
Completed Stories [36] 1608315312 18th December 2020 06:15:12 PM 1120 PASTEDOWN
Reccommended Stories for New Readers 1608315274 18th December 2020 06:14:34 PM 751 PASTEDOWN
Recently Updated Stories [10] 1608315223 18th December 2020 06:13:43 PM 67 PASTEDOWN
One-Shot Stories [43] 1608315153 18th December 2020 06:12:33 PM 438 PASTEDOWN
Popular Stories 1608314634 18th December 2020 06:03:54 PM 803 PASTEDOWN